sat.trackr.live / text

‹ back to catalog

DIWATA-2B

NORAD 43678 · 2018-084H

PAYLOAD ACTIVE UNKNOWN

§ Identity

Operator
Country
RP
Launch date
2018-10-29
Launch site
TANSC
Launch vehicle
Mass (kg)
RCS (m²)

Purposes: comms

External: N2YO · Heavens-Above · Gunter

§ Orbital elements

Epoch: 2026-05-25T03:52:49.782720Z

Period
95.98 min
Inclination
98.1136°
Eccentricity
0.0011607
Mean motion
15.00324226 rev/d
Perigee alt
557.8 km
Apogee alt
574.0 km
Semi-major
6,944.0 km
B*
1.7717e-4
RAAN
340.3777°
Arg perigee
249.1383°
Mean anomaly
110.8597°
Rev number
41,276

§ Raw data

DIWATA-2B1 43678U 18084H   26145.16168730  .00002159  00000+0  17717-3 0  99912 43678  98.1136 340.3777 0011607 249.1383 110.8597 15.00324226412760

JSON: /api/v1/satellites/43678 · /tle

For live sub-satellite position, see the globe view (requires WebGL).

§ Visibility from observer

Set your observer location to see the next 7 days of passes ≥ 10°. The values pass through the URL so the page stays shareable.

No JS? Fill the form by hand. The geolocation button needs JavaScript.

§ Radio — SatNOGS DB

ModeDescriptionDownlinkUplink
CW CW Beacon 145.900 MHz
FM FM VOICE 145.900 MHz 437.500 MHz
FM Mode S 2.285 GHz
AFSK AFSK1k2 (inactive) 145.900 MHz 437.500 MHz

4 transmitters · refreshed weekly from db.satnogs.org